SVA1042 OEJN-OERK

Flight info

Callsign SVA1042
Flight time 0h 53m
Altitude 41000
Route EGREP2W/34C EGREP T532 ORDEM
Aircraft A333/H-SDE2E3FGHIRWXY/L

Departure

Time 2026-05-04 22:20
Airport King Abdulaziz International Airport (OEJN)

Arrival

Time 2026-05-04 23:14
Airport King Khalid International Airport (OERK)
Time Latitude Longitude Altitude Speed Heading
2026-05-04 22:03 21.66909 39.16891 38 ft 0 kts 34°
2026-05-04 22:11 21.66906 39.16888 38 ft 3 kts 34°
2026-05-04 22:11 21.66885 39.16871 36 ft 4 kts 42°
2026-05-04 22:11 21.66866 39.16850 35 ft 4 kts 55°
2026-05-04 22:11 21.66855 39.16826 38 ft 4 kts 87°
2026-05-04 22:12 21.66857 39.16810 38 ft 1 kts 121°
2026-05-04 22:16 21.66817 39.16869 38 ft 12 kts 131°
2026-05-04 22:16 21.66719 39.16924 38 ft 16 kts 162°
2026-05-04 22:17 21.66612 39.16963 39 ft 20 kts 160°
2026-05-04 22:17 21.66487 39.17007 39 ft 12 kts 164°
2026-05-04 22:17 21.66383 39.17021 40 ft 16 kts 185°
2026-05-04 22:17 21.66293 39.16944 40 ft 17 kts 243°
2026-05-04 22:18 21.66250 39.16828 40 ft 17 kts 250°
2026-05-04 22:18 21.66203 39.16689 40 ft 19 kts 252°
2026-05-04 22:18 21.66171 39.16591 39 ft 8 kts 251°
2026-05-04 22:18 21.66169 39.16586 38 ft 0 kts 251°
2026-05-04 22:19 21.66169 39.16585 38 ft 2 kts 251°
2026-05-04 22:19 21.66157 39.16524 38 ft 14 kts 269°
2026-05-04 22:19 21.66224 39.16444 37 ft 18 kts 339°
2026-05-04 22:19 21.66415 39.16368 38 ft 56 kts 339°
2026-05-04 22:20 21.67071 39.16110 37 ft 143 kts 340°
2026-05-04 22:20 21.68160 39.15519 356 ft 194 kts 310°
2026-05-04 22:20 21.69289 39.14565 1028 ft 224 kts 333°
2026-05-04 22:20 21.70832 39.14062 1953 ft 235 kts 348°
2026-05-04 22:21 21.72369 39.13675 3120 ft 221 kts 346°
2026-05-04 22:21 21.73830 39.13248 4144 ft 215 kts 343°
2026-05-04 22:21 21.75193 39.12798 5027 ft 199 kts 341°
2026-05-04 22:21 21.76561 39.12311 5650 ft 218 kts 340°
2026-05-04 22:22 21.78088 39.11737 5957 ft 249 kts 339°
2026-05-04 22:22 21.79776 39.11084 6421 ft 264 kts 339°
2026-05-04 22:22 21.81530 39.10399 7068 ft 272 kts 339°
2026-05-04 22:22 21.83331 39.09691 7794 ft 278 kts 338°
2026-05-04 22:23 21.85158 39.08971 8597 ft 282 kts 338°
2026-05-04 22:23 21.86990 39.08248 9461 ft 286 kts 338°
2026-05-04 22:23 21.88867 39.07503 10274 ft 291 kts 337°
2026-05-04 22:23 21.90804 39.06645 10671 ft 312 kts 335°
2026-05-04 22:24 21.92858 39.05673 10985 ft 333 kts 334°
2026-05-04 22:24 21.95028 39.04634 11453 ft 347 kts 334°
2026-05-04 22:24 21.97263 39.03566 12094 ft 355 kts 334°
2026-05-04 22:24 21.99543 39.02476 12786 ft 362 kts 334°
2026-05-04 22:25 22.01864 39.01367 13518 ft 368 kts 334°
2026-05-04 22:25 22.04225 39.00238 14178 ft 373 kts 334°
2026-05-04 22:25 22.06574 38.99114 14892 ft 377 kts 334°
2026-05-04 22:25 22.08981 38.97962 15620 ft 380 kts 334°
2026-05-04 22:26 22.11407 38.96801 16328 ft 383 kts 333°
2026-05-04 22:26 22.13943 38.95841 17019 ft 392 kts 346°
2026-05-04 22:26 22.16690 38.95780 17704 ft 401 kts
2026-05-04 22:26 22.19347 38.96770 18328 ft 410 kts 28°
2026-05-04 22:27 22.21613 38.98656 18881 ft 416 kts 43°
2026-05-04 22:27 22.23684 39.00859 19452 ft 420 kts 44°
2026-05-04 22:27 22.25748 39.03049 20014 ft 424 kts 43°
2026-05-04 22:27 22.27882 39.05265 20573 ft 428 kts 45°
2026-05-04 22:28 22.29732 39.07796 21120 ft 433 kts 60°
2026-05-04 22:28 22.30851 39.10817 21684 ft 436 kts 75°
2026-05-04 22:28 22.31580 39.14006 22228 ft 439 kts 78°
2026-05-04 22:28 22.32251 39.17230 22791 ft 442 kts 78°
2026-05-04 22:29 22.32931 39.20489 23301 ft 446 kts 78°
2026-05-04 22:29 22.33627 39.23770 23729 ft 451 kts 78°
2026-05-04 22:29 22.34328 39.27042 24111 ft 456 kts 78°
2026-05-04 22:29 22.35050 39.30390 24494 ft 460 kts 77°
2026-05-04 22:30 22.35782 39.33775 24889 ft 465 kts 77°
2026-05-04 22:30 22.36521 39.37189 25292 ft 468 kts 77°
2026-05-04 22:30 22.37264 39.40623 25725 ft 472 kts 77°
2026-05-04 22:30 22.38014 39.44092 26101 ft 476 kts 77°
2026-05-04 22:31 22.38772 39.47597 26431 ft 482 kts 78°
2026-05-04 22:31 22.39536 39.51139 26812 ft 486 kts 78°
2026-05-04 22:31 22.40308 39.54710 27205 ft 490 kts 78°
2026-05-04 22:31 22.41075 39.58259 27593 ft 494 kts 77°
2026-05-04 22:32 22.41857 39.61881 27967 ft 498 kts 77°
2026-05-04 22:32 22.42646 39.65540 28300 ft 502 kts 77°
2026-05-04 22:32 22.43441 39.69231 28683 ft 506 kts 77°
2026-05-04 22:32 22.44240 39.72948 29048 ft 510 kts 78°
2026-05-04 22:33 22.45048 39.76691 29424 ft 514 kts 77°
2026-05-04 22:33 22.46119 39.80391 29765 ft 518 kts 67°
2026-05-04 22:33 22.47796 39.83846 30049 ft 521 kts 54°
2026-05-04 22:33 22.50095 39.86869 30310 ft 521 kts 42°
2026-05-04 22:34 22.52669 39.89554 30602 ft 523 kts 39°
2026-05-04 22:34 22.55382 39.92192 30913 ft 525 kts 38°
2026-05-04 22:34 22.58145 39.94791 31233 ft 528 kts 37°
2026-05-04 22:34 22.60936 39.97391 31520 ft 531 kts 37°
2026-05-04 22:35 22.63734 40.00006 31835 ft 533 kts 37°
2026-05-04 22:35 22.66538 40.02650 32008 ft 535 kts 38°
2026-05-04 22:35 22.69336 40.05307 32046 ft 534 kts 38°
2026-05-04 22:36 22.74908 40.10638 32048 ft 535 kts 38°
2026-05-04 22:36 22.80446 40.15954 32059 ft 536 kts 38°
2026-05-04 22:37 22.86026 40.21316 32056 ft 536 kts 38°
2026-05-04 22:37 22.91608 40.26682 32053 ft 536 kts 38°
2026-05-04 22:38 22.97187 40.32050 32049 ft 536 kts 38°
2026-05-04 22:38 23.02727 40.37388 32043 ft 536 kts 38°
2026-05-04 22:39 23.08303 40.42765 32035 ft 536 kts 38°
2026-05-04 22:39 23.13881 40.48152 32019 ft 538 kts 38°
2026-05-04 22:40 23.19469 40.53554 32032 ft 537 kts 38°
2026-05-04 22:40 23.25022 40.59092 32024 ft 553 kts 45°
2026-05-04 22:40 23.27396 40.62358 32041 ft 564 kts 55°
2026-05-04 22:41 23.29262 40.66129 32024 ft 569 kts 65°
2026-05-04 22:41 23.32284 40.74106 32020 ft 571 kts 69°
2026-05-04 22:42 23.35034 40.82220 32020 ft 571 kts 70°
2026-05-04 22:42 23.37771 40.90336 32020 ft 571 kts 70°
2026-05-04 22:43 23.40531 40.98385 32029 ft 572 kts 69°
2026-05-04 22:43 23.43338 41.06510 32021 ft 574 kts 69°
2026-05-04 22:44 23.46147 41.14645 32018 ft 574 kts 69°
2026-05-04 22:44 23.48952 41.22788 32020 ft 574 kts 69°
2026-05-04 22:45 23.51732 41.30883 32018 ft 574 kts 69°
2026-05-04 22:45 23.55922 41.43113 32009 ft 574 kts 69°
2026-05-04 22:46 23.58711 41.51273 32010 ft 574 kts 69°
2026-05-04 22:46 23.61494 41.59434 32004 ft 574 kts 69°
2026-05-04 22:47 23.64252 41.67533 32007 ft 573 kts 69°
2026-05-04 22:47 23.67021 41.75687 32000 ft 574 kts 70°
2026-05-04 22:48 23.69690 41.83897 31998 ft 574 kts 71°
2026-05-04 22:48 23.72291 41.92135 31993 ft 574 kts 71°
2026-05-04 22:49 23.74886 42.00315 31980 ft 574 kts 70°
2026-05-04 22:49 23.77640 42.08483 31991 ft 573 kts 69°
2026-05-04 22:50 23.80449 42.16613 31985 ft 572 kts 69°
2026-05-04 22:50 23.83245 42.24750 31987 ft 572 kts 69°
2026-05-04 22:51 23.85997 42.32823 31989 ft 571 kts 69°
2026-05-04 22:51 23.88756 42.40955 31988 ft 571 kts 70°
2026-05-04 22:52 23.91514 42.49099 31984 ft 573 kts 70°
2026-05-04 22:52 23.94281 42.57286 31980 ft 574 kts 70°
2026-05-04 22:53 23.97026 42.65421 31981 ft 574 kts 70°
2026-05-04 22:53 23.99781 42.73601 31977 ft 573 kts 70°
2026-05-04 22:54 24.01453 42.78572 31985 ft 573 kts 70°
2026-05-04 22:54 24.10945 43.06977 31947 ft 575 kts 70°
2026-05-04 22:55 24.32437 43.73131 31950 ft 575 kts 71°
2026-05-04 22:55 24.48993 44.39854 31937 ft 567 kts 94°
2026-05-04 22:56 24.54234 44.73802 31922 ft 574 kts 56°
2026-05-04 22:56 24.74373 45.00817 31884 ft 578 kts 56°
2026-05-04 22:56 24.77199 45.06957 31910 ft 578 kts 73°
2026-05-04 22:56 24.78012 45.12346 31900 ft 571 kts 92°
2026-05-04 22:57 24.77646 45.16664 31893 ft 563 kts 107°
2026-05-04 22:57 24.76417 45.20701 31903 ft 553 kts 119°
2026-05-04 22:57 24.74618 45.25858 31893 ft 563 kts 107°
2026-05-04 22:57 24.74091 45.34111 31888 ft 571 kts 95°
2026-05-04 22:58 24.73483 45.42779 31529 ft 562 kts 98°
2026-05-04 22:58 24.73122 45.47026 31119 ft 552 kts 99°
2026-05-04 22:58 24.72760 45.51181 30887 ft 539 kts 99°
2026-05-04 22:59 24.72400 45.55247 30530 ft 529 kts 99°
2026-05-04 22:59 24.72042 45.59243 30084 ft 523 kts 99°
2026-05-04 22:59 24.71686 45.63197 29560 ft 515 kts 99°
2026-05-04 22:59 24.71419 45.67027 28632 ft 506 kts 91°
2026-05-04 23:00 24.71860 45.70846 27508 ft 501 kts 78°
2026-05-04 23:00 24.72695 45.74528 26494 ft 491 kts 76°
2026-05-04 23:00 24.73562 45.78122 25545 ft 481 kts 75°
2026-05-04 23:00 24.74540 45.81594 24612 ft 471 kts 68°
2026-05-04 23:01 24.75999 45.84766 23700 ft 459 kts 55°
2026-05-04 23:01 24.78379 45.87897 22486 ft 443 kts 39°
2026-05-04 23:01 24.86589 45.92999 18787 ft 419 kts 28°
2026-05-04 23:01 24.90529 45.95656 16922 ft 407 kts 24°
2026-05-04 23:02 24.93027 45.97035 15947 ft 398 kts 25°
2026-05-04 23:02 24.95484 45.98414 15326 ft 395 kts 25°
2026-05-04 23:02 24.97913 45.99789 14832 ft 390 kts 25°
2026-05-04 23:02 25.00303 46.01155 14331 ft 385 kts 25°
2026-05-04 23:03 25.02668 46.02515 13805 ft 381 kts 26°
2026-05-04 23:03 25.04985 46.03852 13514 ft 370 kts 26°
2026-05-04 23:03 25.08757 46.06038 12972 ft 338 kts 26°
2026-05-04 23:03 25.16900 46.10757 9837 ft 323 kts 26°
2026-05-04 23:04 25.24600 46.15228 6797 ft 312 kts 26°
2026-05-04 23:04 25.27802 46.17087 5631 ft 306 kts 30°
2026-05-04 23:04 25.29655 46.18167 5159 ft 294 kts 30°
2026-05-04 23:04 25.31409 46.19184 4983 ft 275 kts 30°
2026-05-04 23:05 25.33078 46.20153 4973 ft 257 kts 31°
2026-05-04 23:05 25.39686 46.24006 4974 ft 248 kts 31°
2026-05-04 23:05 25.42374 46.26434 4959 ft 229 kts 73°
2026-05-04 23:05 25.42867 46.28093 4966 ft 229 kts 71°
2026-05-04 23:06 25.43598 46.29679 4973 ft 232 kts 66°
2026-05-04 23:06 25.45270 46.32951 4957 ft 232 kts 67°
2026-05-04 23:06 25.45720 46.34608 4967 ft 222 kts 94°
2026-05-04 23:06 25.45401 46.36217 4959 ft 211 kts 123°
2026-05-04 23:07 25.44463 46.37400 4961 ft 202 kts 147°
2026-05-04 23:07 25.35402 46.43118 4783 ft 206 kts 152°
2026-05-04 23:07 25.32186 46.45311 5159 ft 191 kts 152°
2026-05-04 23:07 25.30970 46.46015 5028 ft 200 kts 155°
2026-05-04 23:08 25.29733 46.46714 4958 ft 195 kts 154°
2026-05-04 23:08 25.28560 46.47412 4958 ft 181 kts 153°
2026-05-04 23:08 25.22356 46.51354 5003 ft 179 kts 152°
2026-05-04 23:08 25.21289 46.52054 5012 ft 178 kts 152°
2026-05-04 23:09 25.17172 46.54699 4862 ft 145 kts 154°
2026-05-04 23:09 25.16272 46.55260 4883 ft 152 kts 154°
2026-05-04 23:09 25.15348 46.55848 4895 ft 154 kts 153°
2026-05-04 23:09 25.14419 46.56443 4895 ft 155 kts 152°
2026-05-04 23:10 25.12982 46.57362 4907 ft 156 kts 153°
2026-05-04 23:10 25.10436 46.58985 4911 ft 154 kts 153°
2026-05-04 23:10 25.09518 46.59571 4759 ft 150 kts 153°
2026-05-04 23:10 25.08630 46.60137 4587 ft 143 kts 153°
2026-05-04 23:11 25.07790 46.60672 4437 ft 138 kts 153°
2026-05-04 23:11 25.05988 46.61817 4074 ft 139 kts 152°
2026-05-04 23:11 25.04354 46.62860 3727 ft 139 kts 152°
2026-05-04 23:11 25.02491 46.64045 3312 ft 124 kts 151°
2026-05-04 23:12 25.01748 46.64519 3191 ft 124 kts 151°
2026-05-04 23:12 25.00994 46.64998 3039 ft 126 kts 150°
2026-05-04 23:12 25.00232 46.65483 2864 ft 132 kts 149°
2026-05-04 23:12 24.99415 46.65998 2686 ft 138 kts 150°
2026-05-04 23:13 24.98574 46.66539 2497 ft 142 kts 149°
2026-05-04 23:13 24.97709 46.67094 2244 ft 144 kts 149°
2026-05-04 23:13 24.96851 46.67641 2088 ft 141 kts 149°
2026-05-04 23:13 24.96026 46.68161 2040 ft 122 kts 150°
2026-05-04 23:14 24.95523 46.68471 2042 ft 55 kts 147°
2026-05-04 23:14 24.95285 46.68637 2040 ft 34 kts 149°
2026-05-04 23:14 24.95101 46.68753 2042 ft 25 kts 147°
2026-05-04 23:14 24.94995 46.68888 2043 ft 20 kts 123°
2026-05-04 23:15 24.94962 46.69028 2041 ft 18 kts 82°
2026-05-04 23:15 24.94977 46.69087 2043 ft 0 kts 64°
2026-05-04 23:15 24.94979 46.69092 2041 ft 4 kts 63°
2026-05-04 23:16 24.95032 46.69121 2041 ft 13 kts 359°
2026-05-04 23:16 24.95141 46.69068 2040 ft 20 kts 329°
2026-05-04 23:16 24.95275 46.68985 2039 ft 18 kts 330°
2026-05-04 23:16 24.95381 46.68915 2043 ft 16 kts 330°
2026-05-04 23:17 24.95481 46.68853 2043 ft 14 kts 331°
2026-05-04 23:17 24.95597 46.68780 2041 ft 24 kts 330°
2026-05-04 23:17 24.95725 46.68699 2041 ft 21 kts 330°
2026-05-04 23:17 24.95839 46.68626 2034 ft 21 kts 330°
2026-05-04 23:18 24.95970 46.68544 2035 ft 19 kts 330°
2026-05-04 23:18 24.96068 46.68533 2039 ft 16 kts 38°
2026-05-04 23:18 24.96134 46.68643 2042 ft 21 kts 63°
2026-05-04 23:18 24.96209 46.68783 2042 ft 20 kts 59°
2026-05-04 23:19 24.96282 46.68924 2040 ft 17 kts 60°
2026-05-04 23:19 24.96357 46.69064 2041 ft 24 kts 60°
2026-05-04 23:19 24.96426 46.69197 2041 ft 20 kts 60°
2026-05-04 23:19 24.96498 46.69333 2041 ft 21 kts 60°
2026-05-04 23:20 24.96567 46.69465 2039 ft 19 kts 60°
2026-05-04 23:20 24.96639 46.69602 2040 ft 22 kts 59°
2026-05-04 23:20 24.96709 46.69735 2042 ft 23 kts 60°
2026-05-04 23:20 24.96786 46.69881 2040 ft 22 kts 60°
2026-05-04 23:21 24.96851 46.70006 2042 ft 16 kts 68°
2026-05-04 23:21 24.96793 46.70105 2036 ft 19 kts 148°
2026-05-04 23:21 24.96688 46.70172 2042 ft 18 kts 149°
2026-05-04 23:21 24.96575 46.70244 2042 ft 20 kts 150°
2026-05-04 23:22 24.96463 46.70314 2041 ft 17 kts 151°
2026-05-04 23:22 24.96380 46.70364 2042 ft 11 kts 162°
2026-05-04 23:22 24.96330 46.70310 2042 ft 14 kts 263°
2026-05-04 23:22 24.96348 46.70242 2041 ft 6 kts 297°
2026-05-04 23:23 24.96362 46.70214 2042 ft 3 kts 299°
2026-05-04 23:23 24.96369 46.70200 2037 ft 0 kts 299°